Change the Weather History Date:

Wednesday, August 7, 2013

  Actual Average (KRHI) Record (KRHI)
Temperature  
Mean Temperature 58 °F 66 °F  
Max Temperature 70 °F 79 °F 94 °F (1937)
Min Temperature 44 °F 54 °F 40 °F (1921)
Degree Days  
Heating Degree Days 7 2  
Month to date heating degree days 12  
Since 1 June heating degree days 197  
Since 1 July heating degree days 63  
Cooling Degree Days 0 3  
Month to date cooling degree days 21  
Year to date cooling degree days 191  
Since 1 June cooling degree days 179  
Growing Degree Days 8 (Base 50)    
Moisture  
Dew Point 53 °F    
Average Humidity 78    
Maximum Humidity 96    
Minimum Humidity 40    
Precipitation  
Precipitation 0.02 in 0.12 in 2.10 in (1966)
Month to date precipitation 0.76  
Year to date precipitation 18.35  
Snow  
Snow 0.00 in - 0.00 in ()
Month to date snowfall  
Since 1 June snowfall  
Since 1 July snowfall  
Snow Depth -    
Sea Level Pressure  
Sea Level Pressure 29.90 in    
Wind  
Wind Speed 3 mph (NW)    
Max Wind Speed 13 mph    
Max Gust Speed 17 mph    
Visibility 9 miles    
Events Rain    
T = Trace of Precipitation, MM = Missing Value Source: NWS Daily Summary

Daily Weather History Graph

Daily Weather History Graph

Search for Another Location

Airport or City:

Trip Planner

Search our weather history database for the weather conditions in past years. The results will help you decide how hot, cold, wet, or windy it might be!

Date:

Astronomy

Aug. 07, 2013 Rise Set
Actual Time 5:50 AM CDT 8:18 PM CDT
Civil Twilight 5:17 AM CDT 8:51 PM CDT
Nautical Twilight 4:35 AM CDT 9:33 PM CDT
Astronomical Twilight 3:48 AM CDT 10:20 PM CDT
Moon 6:44 AM CDT (8/7) 8:18 PM CDT (8/7)
Length of Visible Light 15h 34m
Length of Day
14h 27m
New Moon, 1% of the Moon is Illuminated
Aug 7
New Moon
Aug 14
First Quarter
Aug 20
Full
Aug 28
Last Quarter
Sep 5
New

Hourly Weather History & Observations

Time (CDT) Temp. Dew Point Humidity Pressure Visibility Wind Dir Wind Speed Gust Speed Precip Events Conditions
12:15 AM 58.1 °F 56.8 °F 96% 29.70 in 7.0 mi Calm Calm - N/A Rain Light Rain
12:35 AM 58.1 °F 56.7 °F 95% 29.71 in 5.0 mi Calm Calm - N/A   Scattered Clouds
12:55 AM 57.7 °F 56.5 °F 96% 29.76 in 7.0 mi Calm Calm - N/A   Clear
1:15 AM 58.1 °F 56.7 °F 95% 29.79 in 7.0 mi Calm Calm - N/A   Mostly Cloudy
1:35 AM 58.1 °F 56.8 °F 96% 29.79 in 7.0 mi Calm Calm - N/A   Overcast
1:55 AM 58.3 °F 57.0 °F 96% 29.80 in 7.0 mi Calm Calm - N/A   Overcast
2:15 AM 58.3 °F 57.2 °F 96% 29.79 in 7.0 mi Calm Calm - N/A   Overcast
2:35 AM 58.1 °F 56.8 °F 96% 29.78 in 10.0 mi Calm Calm - N/A   Overcast
2:55 AM 58.3 °F 57.2 °F 96% 29.78 in 10.0 mi Calm Calm - N/A   Overcast
3:15 AM 58.3 °F 57.2 °F 96% 29.78 in 10.0 mi Calm Calm - N/A   Overcast
3:35 AM 58.5 °F 57.2 °F 96% 29.78 in 10.0 mi Calm Calm - N/A   Overcast
3:55 AM 58.6 °F 57.4 °F 96% 29.79 in 7.0 mi Calm Calm - N/A   Overcast
4:15 AM 59.0 °F 57.6 °F 95% 29.79 in 5.0 mi Calm Calm - N/A   Overcast
4:35 AM 59.0 °F 57.7 °F 96% 29.78 in 2.5 mi Calm Calm - 0.01 in   Overcast
4:55 AM 59.0 °F 57.7 °F 96% 29.78 in 3.0 mi Calm Calm - 0.01 in   Overcast
5:15 AM 59.2 °F 58.1 °F 96% 29.78 in 4.0 mi Calm Calm - N/A   Overcast
5:35 AM 59.4 °F 58.1 °F 96% 29.79 in 7.0 mi Calm Calm - N/A   Overcast
5:55 AM 59.5 °F 58.3 °F 96% 29.80 in 7.0 mi WNW 3.5 mph - N/A   Overcast
6:15 AM 59.7 °F 58.5 °F 96% 29.80 in 10.0 mi Calm Calm - N/A   Overcast
6:35 AM 59.9 °F 58.5 °F 95% 29.81 in 10.0 mi NW 3.5 mph - N/A   Overcast
6:55 AM 59.9 °F 58.3 °F 94% 29.82 in 10.0 mi WNW 3.5 mph - N/A   Overcast
7:15 AM 60.1 °F 58.5 °F 94% 29.83 in 10.0 mi WNW 3.5 mph - N/A   Overcast
7:35 AM 60.1 °F 58.3 °F 94% 29.83 in 10.0 mi NW 3.5 mph - N/A   Overcast
7:55 AM 60.1 °F 57.9 °F 93% 29.84 in 10.0 mi NNW 5.8 mph - N/A   Overcast
8:15 AM 61.7 °F 59.0 °F 91% 29.85 in 10.0 mi NW 8.1 mph - N/A   Overcast
8:35 AM 62.2 °F 58.1 °F 86% 29.85 in 10.0 mi NNW 5.8 mph - N/A   Mostly Cloudy
8:55 AM 62.6 °F 57.7 °F 84% 29.85 in 10.0 mi NNW 5.8 mph - N/A   Overcast
9:15 AM 62.6 °F 57.2 °F 82% 29.86 in 10.0 mi North 5.8 mph - N/A   Overcast
9:35 AM 62.6 °F 57.2 °F 82% 29.88 in 10.0 mi NW 8.1 mph - N/A   Overcast
9:55 AM 63.7 °F 57.6 °F 80% 29.88 in 10.0 mi NW 5.8 mph - N/A   Overcast
10:15 AM 65.1 °F 57.2 °F 75% 29.88 in 10.0 mi North 3.5 mph - N/A   Overcast
10:35 AM 64.4 °F 57.4 °F 78% 29.89 in 10.0 mi WNW 8.1 mph - N/A   Overcast
10:55 AM 64.2 °F 57.0 °F 77% 29.90 in 10.0 mi NW 5.8 mph - N/A   Overcast
11:15 AM 65.3 °F 56.7 °F 74% 29.90 in 10.0 mi NNW 6.9 mph - 0.01 in   Overcast
11:35 AM 64.6 °F 56.5 °F 75% 29.91 in 10.0 mi NW 8.1 mph - 0.01 in   Overcast
11:55 AM 64.8 °F 57.4 °F 77% 29.91 in 10.0 mi WNW 5.8 mph - 0.01 in   Overcast
12:15 PM 64.0 °F 57.2 °F 78% 29.92 in 10.0 mi WNW 4.6 mph - N/A   Overcast
12:35 PM 67.5 °F 57.4 °F 70% 29.92 in 10.0 mi NW 9.2 mph - N/A   Mostly Cloudy
12:55 PM 67.8 °F 56.5 °F 67% 29.92 in 10.0 mi NNW 9.2 mph - N/A   Scattered Clouds
1:15 PM 68.0 °F 54.3 °F 62% 29.93 in 10.0 mi NW 9.2 mph 16.1 mph N/A   Scattered Clouds
1:35 PM 69.6 °F 53.8 °F 57% 29.93 in 10.0 mi WNW 9.2 mph 17.3 mph N/A   Scattered Clouds
1:55 PM 68.5 °F 54.1 °F 60% 29.94 in 10.0 mi NW 10.4 mph - N/A   Mostly Cloudy
2:15 PM 70.5 °F 52.7 °F 53% 29.94 in 10.0 mi NNW 9.2 mph 17.3 mph N/A   Mostly Cloudy
2:35 PM 69.3 °F 52.9 °F 56% 29.94 in 10.0 mi NW 11.5 mph - N/A   Scattered Clouds
2:55 PM 70.5 °F 51.4 °F 51% 29.94 in 10.0 mi NW 10.4 mph - N/A   Scattered Clouds
3:15 PM 68.9 °F 51.3 °F 53% 29.95 in 10.0 mi NW 10.4 mph - N/A   Scattered Clouds
3:35 PM 69.3 °F 49.5 °F 49% 29.95 in 10.0 mi NW 9.2 mph - N/A   Scattered Clouds
3:55 PM 70.0 °F 49.1 °F 47% 29.95 in 10.0 mi North 8.1 mph - N/A   Scattered Clouds
4:15 PM 69.6 °F 47.8 °F 46% 29.95 in 10.0 mi NNW 12.7 mph 16.1 mph N/A   Scattered Clouds
4:35 PM 69.1 °F 44.6 °F 41% 29.95 in 10.0 mi North 6.9 mph - N/A   Clear
4:55 PM 69.1 °F 45.1 °F 42% 29.96 in 10.0 mi NW 8.1 mph - N/A   Clear
5:15 PM 68.9 °F 45.0 °F 42% 29.96 in 10.0 mi NW 9.2 mph 16.1 mph N/A   Clear
5:35 PM 68.9 °F 44.2 °F 41% 29.96 in 10.0 mi NW 6.9 mph - N/A   Clear
5:55 PM 68.2 °F 43.7 °F 41% 29.97 in 10.0 mi North 8.1 mph - N/A   Clear
6:15 PM 67.3 °F 42.4 °F 40% 29.97 in 10.0 mi NNW 6.9 mph 16.1 mph N/A   Clear
6:35 PM 66.7 °F 43.7 °F 43% 29.97 in 10.0 mi North 5.8 mph - N/A   Clear
6:55 PM 65.8 °F 43.7 °F 45% 29.97 in 10.0 mi NNW 4.6 mph - N/A   Clear
7:15 PM 64.9 °F 45.0 °F 48% 29.97 in 10.0 mi Calm Calm - N/A   Clear
7:35 PM 63.9 °F 46.4 °F 53% 29.98 in 10.0 mi Calm Calm - N/A   Clear
7:55 PM 58.8 °F 50.2 °F 73% 29.98 in 10.0 mi Calm Calm - N/A   Clear
8:15 PM 55.6 °F 49.3 °F 79% 29.99 in 10.0 mi Calm Calm - N/A   Clear
8:35 PM 53.8 °F 49.6 °F 86% 29.99 in 10.0 mi Calm Calm - N/A   Clear
8:55 PM 52.2 °F 48.6 °F 88% 30.00 in 10.0 mi Calm Calm - N/A   Clear
9:15 PM 50.7 °F 48.2 °F 91% 30.01 in 10.0 mi Calm Calm - N/A   Clear
9:35 PM 49.5 °F 47.5 °F 93% 30.02 in 10.0 mi Calm Calm - N/A   Clear
9:55 PM 48.2 °F 46.4 °F 93% 30.03 in 10.0 mi Calm Calm - N/A   Clear
10:15 PM 47.3 °F 45.7 °F 94% 30.04 in 10.0 mi Calm Calm - N/A   Clear
10:35 PM 46.9 °F 45.5 °F 95% 30.04 in 10.0 mi Calm Calm - N/A   Clear
10:55 PM 47.1 °F 45.7 °F 95% 30.04 in 10.0 mi Calm Calm - N/A   Clear
11:15 PM 46.2 °F 44.8 °F 95% 30.04 in 7.0 mi Calm Calm - N/A   Clear
11:35 PM 46.4 °F 45.0 °F 95% 30.04 in 10.0 mi Calm Calm - N/A   Clear
11:55 PM 44.6 °F 43.2 °F 95% 30.05 in 10.0 mi Calm Calm - N/A   Clear